| time (UTC) | temp F | wind direction | speed MPH | gust MPH | rain 1hr in | rain 24hr in | rain mn in | humidity % | barometer mb |
| 20260906150023 | 66 | 48 | 0.0 | 2.0 | 0.00 | 0.00 | 0.00 | 82 | 1003.1 |
| 20260906145532 | 66 | 90 | 0.0 | 3.0 | 0.00 | 0.00 | 0.00 | 82 | 1003.1 |
| 20260906145044 | 65 | 6 | 1.0 | 3.0 | 0.00 | 0.00 | 0.00 | 82 | 1003.0 |
| 20260906144542 | 65 | 255 | 0.0 | 2.0 | 0.00 | 0.00 | 0.00 | 87 | 1003.1 |
| 20260906144028 | 64 | 108 | 1.0 | 2.0 | 0.00 | 0.00 | 0.00 | 88 | 1003.2 |
| 20260906143602 | 63 | 143 | 0.0 | 2.0 | 0.00 | 0.00 | 0.00 | 88 | 1003.2 |
| 20260906143107 | 63 | 110 | 0.0 | 3.0 | 0.00 | 0.00 | 0.00 | 88 | 1003.1 |
| 20260906142555 | 63 | 241 | 1.0 | 3.0 | 0.00 | 0.00 | 0.00 | 86 | 1003.0 |
| 20260906142105 | 63 | 233 | 1.0 | 2.0 | 0.00 | 0.00 | 0.00 | 85 | 1003.0 |
| 20260906141545 | 64 | 226 | 0.0 | 2.0 | 0.00 | 0.00 | 0.00 | 86 | 1003.0 |
| 20260906141032 | 64 | 281 | 0.0 | 1.0 | 0.00 | 0.00 | 0.00 | 87 | 1002.9 |
| 20260906140544 | 64 | 146 | 0.0 | 1.0 | 0.00 | 0.00 | 0.00 | 85 | 1002.8 |
| 20260906140020 | 63 | 200 | 0.0 | 1.0 | 0.00 | 0.00 | 0.00 | 87 | 1002.8 |
| 20260906135529 | 63 | 165 | 0.0 | 1.0 | 0.00 | 0.00 | 0.00 | 88 | 1002.7 |
| 20260906135038 | 63 | 220 | 0.0 | 1.0 | 0.00 | 0.00 | 0.00 | 88 | 1002.8 |
| 20260906134542 | 63 | 258 | 0.0 | 1.0 | 0.00 | 0.00 | 0.00 | 88 | 1002.8 |
| 20260906134022 | 63 | 276 | 0.0 | 1.0 | 0.00 | 0.00 | 0.00 | 88 | 1002.7 |
| 20260906133546 | 63 | 295 | 0.0 | 1.0 | 0.00 | 0.00 | 0.00 | 88 | 1002.6 |
| 20260906133103 | 63 | 287 | 0.0 | 1.0 | 0.00 | 0.00 | 0.00 | 90 | 1002.6 |
| 20260906132541 | 62 | 287 | 0.0 | 2.0 | 0.00 | 0.00 | 0.00 | 89 | 1002.6 |
| 20260906132028 | 62 | 238 | 1.0 | 2.0 | 0.00 | 0.00 | 0.00 | 89 | 1002.5 |
| 20260906131525 | 62 | 270 | 0.0 | 3.0 | 0.00 | 0.00 | 0.00 | 90 | 1002.6 |
| 20260906131034 | 62 | 124 | 1.0 | 3.0 | 0.00 | 0.00 | 0.00 | 90 | 1002.5 |
| 20260906130525 | 62 | 140 | 0.0 | 2.0 | 0.00 | 0.00 | 0.00 | 92 | 1002.5 |
| 20260906130043 | 61 | 250 | 0.0 | 1.0 | 0.00 | 0.00 | 0.00 | 94 | 1002.5 |
| 20260906125524 | 61 | 250 | 0.0 | 1.0 | 0.00 | 0.00 | 0.00 | 94 | 1002.5 |
| 20260906125032 | 60 | 250 | 0.0 | 1.0 | 0.00 | 0.00 | 0.00 | 94 | 1002.6 |
| 20260906124542 | 60 | 243 | 0.0 | 2.0 | 0.00 | 0.00 | 0.00 | 95 | 1002.5 |
| 20260906124042 | 60 | 224 | 0.0 | 2.0 | 0.00 | 0.00 | 0.00 | 96 | 1002.5 |
| 20260906123531 | 59 | 308 | 0.0 | 2.0 | 0.00 | 0.00 | 0.00 | 97 | 1002.4 |
| 20260906123027 | 58 | 294 | 0.0 | 2.0 | 0.00 | 0.00 | 0.00 | 97 | 1002.4 |
| 20260906122527 | 58 | 121 | 0.0 | 0.0 | 0.00 | 0.00 | 0.00 | 98 | 1002.4 |
| 20260906122032 | 57 | 121 | 0.0 | 0.0 | 0.00 | 0.00 | 0.00 | 98 | 1002.4 |
| 20260906121534 | 57 | 121 | 0.0 | 0.0 | 0.00 | 0.00 | 0.00 | 97 | 1002.3 |
| 20260906121043 | 57 | 121 | 0.0 | 0.0 | 0.00 | 0.00 | 0.00 | 97 | 1002.2 |
| 20260906120525 | 57 | 121 | 0.0 | 0.0 | 0.00 | 0.00 | 0.00 | 97 | 1002.2 |
| 20260906120032 | 57 | 121 | 0.0 | 1.0 | 0.00 | 0.00 | 0.00 | 97 | 1002.2 |
| 20260906115543 | 57 | 121 | 0.0 | 1.0 | 0.00 | 0.00 | 0.00 | 97 | 1002.2 |
| 20260906115022 | 57 | 121 | 0.0 | 0.0 | 0.00 | 0.00 | 0.00 | 97 | 1002.1 |
| 20260906114533 | 57 | 121 | 0.0 | 0.0 | 0.00 | 0.00 | 0.00 | 97 | 1002.1 |
| 20260906114043 | 57 | 121 | 0.0 | 1.0 | 0.00 | 0.00 | 0.00 | 97 | 1001.9 |
| 20260906113544 | 57 | 121 | 0.0 | 0.0 | 0.00 | 0.00 | 0.00 | 96 | 1001.8 |
| 20260906113104 | 57 | 121 | 0.0 | 1.0 | 0.00 | 0.00 | 0.00 | 96 | 1001.7 |
| 20260906112539 | 57 | 121 | 0.0 | 1.0 | 0.00 | 0.00 | 0.00 | 96 | 1001.6 |
| 20260906112043 | 57 | 120 | 0.0 | 0.0 | 0.00 | 0.00 | 0.00 | 96 | 1001.5 |
| 20260906111547 | 57 | 131 | 0.0 | 1.0 | 0.00 | 0.00 | 0.00 | 96 | 1001.5 |
| 20260906111035 | 57 | 131 | 0.0 | 1.0 | 0.00 | 0.00 | 0.00 | 96 | 1001.4 |
| 20260906110546 | 57 | 86 | 0.0 | 0.0 | 0.00 | 0.00 | 0.00 | 96 | 1001.4 |
| 20260906110023 | 58 | 86 | 0.0 | 0.0 | 0.00 | 0.00 | 0.00 | 96 | 1001.4 |
| 20260906105532 | 58 | 86 | 0.0 | 0.0 | 0.00 | 0.00 | 0.00 | 96 | 1001.3 |
| 20260906105033 | 58 | 86 | 0.0 | 0.0 | 0.00 | 0.00 | 0.00 | 96 | 1001.1 |
| 20260906104522 | 58 | 86 | 0.0 | 0.0 | 0.00 | 0.00 | 0.00 | 96 | 1001.2 |
| 20260906104031 | 58 | 86 | 0.0 | 0.0 | 0.00 | 0.00 | 0.00 | 96 | 1001.1 |
| 20260906103532 | 58 | 86 | 0.0 | 0.0 | 0.00 | 0.00 | 0.00 | 96 | 1001.0 |
| 20260906103039 | 58 | 86 | 0.0 | 1.0 | 0.00 | 0.00 | 0.00 | 96 | 1000.9 |
| 20260906102519 | 58 | 68 | 0.0 | 1.0 | 0.00 | 0.00 | 0.00 | 96 | 1000.8 |
| 20260906102029 | 58 | 68 | 0.0 | 1.0 | 0.00 | 0.00 | 0.00 | 95 | 1000.7 |
| 20260906101539 | 59 | 281 | 0.0 | 1.0 | 0.00 | 0.00 | 0.00 | 95 | 1000.8 |
| 20260906101045 | 59 | 281 | 0.0 | 1.0 | 0.00 | 0.00 | 0.00 | 95 | 1000.7 |
| 20260906100525 | 59 | 281 | 0.0 | 1.0 | 0.00 | 0.00 | 0.00 | 96 | 1000.6 |
| 20260906100033 | 59 | 282 | 0.0 | 1.0 | 0.00 | 0.00 | 0.00 | 96 | 1000.7 |
| 20260906095536 | 59 | 283 | 0.0 | 1.0 | 0.00 | 0.00 | 0.00 | 96 | 1000.7 |
| 20260906095036 | 59 | 283 | 0.0 | 1.0 | 0.00 | 0.00 | 0.00 | 96 | 1000.7 |
| 20260906094526 | 59 | 285 | 0.0 | 1.0 | 0.00 | 0.00 | 0.00 | 96 | 1000.6 |
| 20260906094023 | 59 | 265 | 0.0 | 1.0 | 0.00 | 0.00 | 0.00 | 96 | 1000.5 |
| 20260906093534 | 59 | 262 | 0.0 | 1.0 | 0.00 | 0.00 | 0.00 | 96 | 1000.5 |
| 20260906093022 | 60 | 262 | 0.0 | 1.0 | 0.00 | 0.00 | 0.00 | 96 | 1000.4 |
| 20260906092551 | 60 | 107 | 0.0 | 1.0 | 0.00 | 0.00 | 0.00 | 96 | 1000.4 |
| 20260906092029 | 60 | 106 | 0.0 | 1.0 | 0.00 | 0.00 | 0.00 | 96 | 1000.4 |
| 20260906091538 | 60 | 106 | 0.0 | 0.0 | 0.00 | 0.00 | 0.00 | 96 | 1000.3 |
| 20260906091047 | 60 | 106 | 0.0 | 5.0 | 0.00 | 0.00 | 0.00 | 96 | 1000.3 |
| 20260906090529 | 60 | 104 | 0.0 | 5.0 | 0.00 | 0.00 | 0.00 | 96 | 1000.2 |
| 20260906090036 | 60 | 84 | 1.0 | 4.0 | 0.00 | 0.00 | 0.00 | 97 | 1000.2 |
| 20260906085542 | 60 | 255 | 0.0 | 3.0 | 0.00 | 0.00 | 0.00 | 97 | 1000.2 |
| 20260906085048 | 60 | 74 | 0.0 | 3.0 | 0.00 | 0.00 | 0.00 | 97 | 1000.1 |
| 20260906084526 | 60 | 129 | 0.0 | 0.0 | 0.00 | 0.00 | 0.00 | 97 | 1000.1 |
| 20260906084031 | 60 | 129 | 0.0 | 0.0 | 0.00 | 0.00 | 0.00 | 97 | 1000.0 |
| 20260906083539 | 60 | 129 | 0.0 | 0.0 | 0.00 | 0.00 | 0.00 | 97 | 999.9 |
| 20260906083046 | 60 | 129 | 0.0 | 0.0 | 0.00 | 0.00 | 0.00 | 97 | 999.8 |
| 20260906082526 | 60 | 129 | 0.0 | 0.0 | 0.00 | 0.00 | 0.00 | 97 | 999.8 |
| 20260906082035 | 60 | 129 | 0.0 | 1.0 | 0.00 | 0.00 | 0.00 | 97 | 999.7 |
| 20260906081532 | 60 | 269 | 0.0 | 1.0 | 0.00 | 0.00 | 0.00 | 97 | 999.7 |
| 20260906081043 | 60 | 269 | 0.0 | 1.0 | 0.00 | 0.00 | 0.00 | 97 | 999.7 |
| 20260906080530 | 60 | 269 | 0.0 | 1.0 | 0.00 | 0.00 | 0.00 | 97 | 999.7 |
| 20260906080039 | 60 | 141 | 0.0 | 0.0 | 0.00 | 0.00 | 0.00 | 97 | 999.7 |
| 20260906075546 | 60 | 141 | 0.0 | 0.0 | 0.00 | 0.00 | 0.00 | 96 | 999.7 |
| 20260906075054 | 60 | 141 | 0.0 | 1.0 | 0.00 | 0.00 | 0.00 | 97 | 999.7 |
| 20260906074534 | 60 | 141 | 0.0 | 1.0 | 0.00 | 0.00 | 0.00 | 97 | 999.6 |
| 20260906074023 | 60 | 140 | 0.0 | 0.0 | 0.00 | 0.00 | 0.00 | 96 | 999.6 |
| 20260906073536 | 60 | 140 | 0.0 | 0.0 | 0.00 | 0.00 | 0.00 | 96 | 999.6 |
| 20260906073030 | 60 | 140 | 0.0 | 0.0 | 0.00 | 0.00 | 0.00 | 96 | 999.6 |
| 20260906072519 | 60 | 140 | 0.0 | 0.0 | 0.00 | 0.00 | 0.00 | 96 | 999.6 |
| 20260906072049 | 60 | 140 | 0.0 | 0.0 | 0.00 | 0.00 | 0.00 | 96 | 999.5 |
| 20260906071527 | 60 | 141 | 0.0 | 0.0 | 0.00 | 0.00 | 0.00 | 96 | 999.4 |
| 20260906071037 | 60 | 140 | 0.0 | 0.0 | 0.00 | 0.00 | 0.00 | 96 | 999.3 |
| 20260906070549 | 60 | 140 | 0.0 | 0.0 | 0.00 | 0.00 | 0.00 | 95 | 999.3 |
| 20260906070026 | 61 | 140 | 0.0 | 0.0 | 0.00 | 0.00 | 0.00 | 95 | 999.2 |
| 20260906065535 | 61 | 140 | 0.0 | 0.0 | 0.00 | 0.00 | 0.00 | 95 | 999.2 |
| 20260906065045 | 61 | 140 | 0.0 | 0.0 | 0.00 | 0.00 | 0.00 | 95 | 999.3 |
| 20260906064525 | 61 | 141 | 0.0 | 0.0 | 0.00 | 0.00 | 0.00 | 95 | 999.2 |
| 20260906064035 | 61 | 140 | 0.0 | 0.0 | 0.00 | 0.00 | 0.00 | 95 | 999.3 |
| 20260906063547 | 61 | 140 | 0.0 | 0.0 | 0.00 | 0.00 | 0.00 | 95 | 999.3 |
| 20260906063024 | 61 | 140 | 0.0 | 0.0 | 0.00 | 0.00 | 0.00 | 95 | 999.4 |
| 20260906062533 | 61 | 140 | 0.0 | 0.0 | 0.00 | 0.00 | 0.00 | 95 | 999.3 |
| 20260906062042 | 61 | 140 | 0.0 | 0.0 | 0.00 | 0.00 | 0.00 | 95 | 999.3 |
| 20260906061522 | 61 | 140 | 0.0 | 0.0 | 0.00 | 0.00 | 0.00 | 95 | 999.3 |
| 20260906061032 | 61 | 140 | 0.0 | 0.0 | 0.00 | 0.00 | 0.00 | 94 | 999.3 |
| 20260906060530 | 62 | 140 | 0.0 | 0.0 | 0.00 | 0.00 | 0.00 | 94 | 999.3 |
| 20260906060038 | 62 | 140 | 0.0 | 0.0 | 0.00 | 0.00 | 0.00 | 94 | 999.3 |
| 20260906055543 | 62 | 140 | 0.0 | 0.0 | 0.00 | 0.00 | 0.00 | 94 | 999.4 |
| 20260906055051 | 62 | 140 | 0.0 | 0.0 | 0.00 | 0.00 | 0.00 | 94 | 999.5 |
| 20260906054539 | 62 | 140 | 0.0 | 0.0 | 0.00 | 0.00 | 0.00 | 94 | 999.4 |
| 20260906054046 | 62 | 140 | 0.0 | 0.0 | 0.00 | 0.00 | 0.00 | 94 | 999.4 |
| 20260906053545 | 62 | 140 | 0.0 | 0.0 | 0.00 | 0.00 | 0.00 | 94 | 999.4 |
| 20260906053032 | 62 | 140 | 0.0 | 0.0 | 0.00 | 0.00 | 0.00 | 93 | 999.4 |
| 20260906052542 | 62 | 140 | 0.0 | 0.0 | 0.00 | 0.00 | 0.00 | 93 | 999.3 |
| 20260906052022 | 62 | 140 | 0.0 | 0.0 | 0.00 | 0.00 | 0.00 | 93 | 999.3 |
| 20260906051532 | 62 | 140 | 0.0 | 0.0 | 0.00 | 0.00 | 0.00 | 92 | 999.3 |
| 20260906051041 | 62 | 140 | 0.0 | 0.0 | 0.00 | 0.00 | 0.00 | 92 | 999.3 |
| 20260906050542 | 62 | 140 | 0.0 | 1.0 | 0.00 | 0.00 | 0.00 | 92 | 999.3 |
| 20260906050027 | 63 | 140 | 0.0 | 1.0 | 0.00 | 0.00 | 0.00 | 92 | 999.3 |
| 20260906045532 | 63 | 169 | 0.0 | 0.0 | 0.00 | 0.00 | 0.00 | 92 | 999.3 |
| 20260906045033 | 63 | 155 | 0.0 | 0.0 | 0.00 | 0.00 | 0.00 | 93 | 999.3 |
| 20260906044522 | 63 | 133 | 0.0 | 1.0 | 0.00 | 0.00 | 0.00 | 93 | 999.3 |
| 20260906044024 | 63 | 133 | 0.0 | 1.0 | 0.00 | 0.00 | 0.00 | 93 | 999.2 |
| 20260906043536 | 62 | 130 | 0.0 | 2.0 | 0.00 | 0.00 | 0.00 | 94 | 999.2 |
| 20260906043042 | 62 | 126 | 0.0 | 2.0 | 0.00 | 0.00 | 0.00 | 94 | 999.2 |
| 20260906042550 | 62 | 131 | 0.0 | 1.0 | 0.00 | 0.00 | 0.00 | 94 | 999.3 |
| 20260906042036 | 62 | 131 | 0.0 | 1.0 | 0.00 | 0.00 | 0.00 | 94 | 999.3 |
| 20260906041545 | 62 | 131 | 0.0 | 1.0 | 0.00 | 0.00 | 0.00 | 94 | 999.3 |
| 20260906041025 | 62 | 131 | 0.0 | 1.0 | 0.00 | 0.00 | 0.00 | 94 | 999.3 |
| 20260906040537 | 62 | 131 | 0.0 | 0.0 | 0.00 | 0.00 | 0.00 | 94 | 999.3 |
| 20260906040042 | 62 | 131 | 0.0 | 0.0 | 0.00 | 0.00 | 0.00 | 94 | 999.3 |
| 20260906035521 | 62 | 131 | 0.0 | 0.0 | 0.00 | 0.00 | 0.00 | 94 | 999.3 |
| 20260906035031 | 62 | 131 | 0.0 | 0.0 | 0.00 | 0.00 | 0.00 | 94 | 999.2 |
| 20260906034527 | 62 | 131 | 0.0 | 0.0 | 0.00 | 0.00 | 0.00 | 94 | 999.1 |
| 20260906034030 | 62 | 131 | 0.0 | 2.0 | 0.00 | 0.00 | 0.00 | 94 | 999.2 |
| 20260906033541 | 62 | 131 | 0.0 | 2.0 | 0.00 | 0.00 | 0.00 | 95 | 999.1 |
| 20260906033029 | 62 | 132 | 0.0 | 1.0 | 0.00 | 0.00 | 0.00 | 95 | 999.2 |
| 20260906032530 | 62 | 172 | 0.0 | 0.0 | 0.00 | 0.00 | 0.00 | 95 | 999.1 |
| 20260906032039 | 62 | 172 | 0.0 | 0.0 | 0.00 | 0.00 | 0.00 | 95 | 999.1 |
| 20260906031549 | 62 | 129 | 0.0 | 1.0 | 0.00 | 0.00 | 0.00 | 95 | 999.1 |
| 20260906031100 | 61 | 129 | 0.0 | 1.0 | 0.00 | 0.00 | 0.00 | 96 | 999.1 |
| 20260906030612 | 61 | 128 | 0.0 | 0.0 | 0.00 | 0.00 | 0.00 | 96 | 999.1 |
| 20260906030100 | 61 | 128 | 0.0 | 0.0 | 0.00 | 0.00 | 0.00 | 96 | 999.1 |
| 20260906025608 | 61 | 128 | 0.0 | 0.0 | 0.00 | 0.00 | 0.00 | 96 | 999.0 |
| 20260906025046 | 61 | 133 | 0.0 | 0.0 | 0.00 | 0.00 | 0.00 | 96 | 999.1 |
| 20260906024546 | 61 | 133 | 0.0 | 0.0 | 0.00 | 0.00 | 0.00 | 95 | 999.0 |
| 20260906024105 | 61 | 133 | 0.0 | 0.0 | 0.00 | 0.00 | 0.00 | 95 | 999.0 |
| 20260906023525 | 61 | 133 | 0.0 | 0.0 | 0.00 | 0.00 | 0.00 | 95 | 998.9 |
| 20260906023030 | 61 | 133 | 0.0 | 0.0 | 0.00 | 0.00 | 0.00 | 95 | 998.9 |
| 20260906022540 | 61 | 133 | 0.0 | 0.0 | 0.00 | 0.00 | 0.00 | 95 | 998.9 |
| 20260906022020 | 61 | 133 | 0.0 | 0.0 | 0.00 | 0.00 | 0.00 | 95 | 998.9 |
| 20260906021530 | 61 | 133 | 0.0 | 0.0 | 0.00 | 0.00 | 0.00 | 95 | 998.8 |
| 20260906021039 | 61 | 133 | 0.0 | 0.0 | 0.00 | 0.00 | 0.00 | 95 | 998.8 |
| 20260906020521 | 61 | 133 | 0.0 | 0.0 | 0.00 | 0.00 | 0.00 | 95 | 998.7 |
| 20260906020048 | 61 | 133 | 0.0 | 0.0 | 0.00 | 0.00 | 0.00 | 95 | 998.8 |
| 20260906015555 | 61 | 133 | 0.0 | 1.0 | 0.00 | 0.00 | 0.00 | 95 | 998.8 |
| 20260906015023 | 61 | 133 | 0.0 | 1.0 | 0.00 | 0.00 | 0.00 | 95 | 998.7 |
| 20260906014549 | 61 | 112 | 0.0 | 1.0 | 0.00 | 0.00 | 0.00 | 95 | 998.8 |
| 20260906014026 | 61 | 150 | 0.0 | 0.0 | 0.00 | 0.00 | 0.00 | 94 | 998.8 |
| 20260906013538 | 61 | 150 | 0.0 | 0.0 | 0.00 | 0.00 | 0.00 | 94 | 998.8 |
| 20260906013046 | 62 | 150 | 0.0 | 0.0 | 0.00 | 0.00 | 0.00 | 94 | 998.9 |
| 20260906012542 | 62 | 150 | 0.0 | 0.0 | 0.00 | 0.00 | 0.00 | 94 | 998.9 |
| 20260906012103 | 62 | 150 | 0.0 | 0.0 | 0.00 | 0.00 | 0.00 | 94 | 998.8 |
| 20260906011522 | 62 | 150 | 0.0 | 0.0 | 0.00 | 0.00 | 0.00 | 94 | 998.8 |
| 20260906011031 | 62 | 150 | 0.0 | 0.0 | 0.00 | 0.00 | 0.00 | 94 | 998.7 |
| 20260906010534 | 62 | 150 | 0.0 | 0.0 | 0.00 | 0.00 | 0.00 | 95 | 998.8 |
| 20260906010022 | 62 | 150 | 0.0 | 1.0 | 0.00 | 0.00 | 0.00 | 95 | 998.8 |
| 20260906005533 | 62 | 119 | 0.0 | 0.0 | 0.00 | 0.00 | 0.00 | 95 | 998.8 |
| 20260906005057 | 62 | 119 | 0.0 | 0.0 | 0.00 | 0.00 | 0.00 | 95 | 998.8 |
| 20260906004603 | 62 | 119 | 0.0 | 0.0 | 0.00 | 0.00 | 0.00 | 95 | 998.7 |
| 20260906004040 | 61 | 119 | 0.0 | 0.0 | 0.00 | 0.00 | 0.00 | 95 | 998.7 |
| 20260906003559 | 61 | 119 | 0.0 | 0.0 | 0.00 | 0.00 | 0.00 | 95 | 998.6 |
| 20260906003107 | 61 | 119 | 0.0 | 0.0 | 0.00 | 0.00 | 0.00 | 95 | 998.6 |
| 20260906002526 | 61 | 119 | 0.0 | 0.0 | 0.00 | 0.00 | 0.00 | 94 | 998.5 |
| 20260906002036 | 61 | 119 | 0.0 | 0.0 | 0.00 | 0.00 | 0.00 | 94 | 998.5 |
| 20260906001544 | 62 | 119 | 0.0 | 0.0 | 0.00 | 0.00 | 0.00 | 94 | 998.5 |
| 20260906001024 | 62 | 119 | 0.0 | 0.0 | 0.00 | 0.00 | 0.00 | 94 | 998.4 |
| 20260906000535 | 62 | 119 | 0.0 | 0.0 | 0.00 | 0.00 | 0.00 | 93 | 998.5 |
| 20260906000033 | 62 | 119 | 0.0 | 0.0 | 0.00 | 0.00 | 0.00 | 93 | 998.4 |
| 20260905235520 | 62 | 119 | 0.0 | 0.0 | 0.00 | 0.00 | 0.00 | 92 | 998.3 |
| 20260905235030 | 62 | 120 | 0.0 | 0.0 | 0.00 | 0.00 | 0.00 | 92 | 998.2 |
| 20260905234529 | 63 | 119 | 0.0 | 0.0 | 0.00 | 0.00 | 0.00 | 91 | 998.2 |
| 20260905234039 | 63 | 119 | 0.0 | 0.0 | 0.00 | 0.00 | 0.00 | 90 | 998.2 |
| 20260905233527 | 64 | 119 | 0.0 | 0.0 | 0.00 | 0.00 | 0.00 | 90 | 998.2 |
| 20260905233045 | 64 | 119 | 0.0 | 0.0 | 0.00 | 0.00 | 0.00 | 90 | 998.3 |
| 20260905232525 | 64 | 119 | 0.0 | 0.0 | 0.00 | 0.00 | 0.00 | 90 | 998.3 |
| 20260905232034 | 64 | 119 | 0.0 | 0.0 | 0.00 | 0.00 | 0.00 | 89 | 998.2 |
| 20260905231532 | 65 | 119 | 0.0 | 0.0 | 0.00 | 0.00 | 0.00 | 90 | 998.1 |
| 20260905231021 | 65 | 119 | 0.0 | 0.0 | 0.00 | 0.00 | 0.00 | 89 | 998.1 |
| 20260905230533 | 65 | 119 | 0.0 | 0.0 | 0.00 | 0.00 | 0.00 | 89 | 998.0 |
| 20260905230031 | 66 | 119 | 0.0 | 0.0 | 0.00 | 0.00 | 0.00 | 89 | 997.9 |
| 20260905225539 | 66 | 119 | 0.0 | 0.0 | 0.00 | 0.00 | 0.00 | 88 | 997.9 |
| 20260905225030 | 66 | 119 | 0.0 | 0.0 | 0.00 | 0.00 | 0.00 | 88 | 997.9 |
| 20260905224600 | 66 | 119 | 0.0 | 0.0 | 0.00 | 0.00 | 0.00 | 88 | 997.9 |
| 20260905224040 | 67 | 119 | 0.0 | 0.0 | 0.00 | 0.00 | 0.00 | 87 | 997.9 |
| 20260905223550 | 67 | 119 | 0.0 | 0.0 | 0.00 | 0.00 | 0.00 | 86 | 997.8 |
| 20260905223055 | 67 | 119 | 0.0 | 0.0 | 0.00 | 0.00 | 0.00 | 85 | 997.8 |
| 20260905222529 | 68 | 119 | 0.0 | 0.0 | 0.00 | 0.00 | 0.00 | 83 | 997.8 |
| 20260905222038 | 69 | 119 | 0.0 | 0.0 | 0.00 | 0.00 | 0.00 | 83 | 997.7 |
| 20260905221548 | 69 | 119 | 0.0 | 0.0 | 0.00 | 0.00 | 0.00 | 81 | 997.6 |
| 20260905221056 | 69 | 119 | 0.0 | 0.0 | 0.00 | 0.00 | 0.00 | 81 | 997.7 |
| 20260905220608 | 70 | 119 | 0.0 | 0.0 | 0.00 | 0.00 | 0.00 | 82 | 997.7 |
| 20260905220025 | 70 | 119 | 0.0 | 0.0 | 0.00 | 0.00 | 0.00 | 80 | 997.7 |
| 20260905215535 | 71 | 119 | 0.0 | 0.0 | 0.00 | 0.00 | 0.00 | 78 | 997.6 |
| 20260905215044 | 72 | 119 | 0.0 | 0.0 | 0.00 | 0.00 | 0.00 | 76 | 997.6 |
| 20260905214524 | 73 | 119 | 0.0 | 1.0 | 0.00 | 0.00 | 0.00 | 74 | 997.5 |
| 20260905214034 | 74 | 119 | 0.0 | 1.0 | 0.00 | 0.00 | 0.00 | 71 | 997.4 |
| 20260905213536 | 75 | 119 | 0.0 | 1.0 | 0.00 | 0.00 | 0.00 | 70 | 997.4 |
| 20260905213043 | 77 | 120 | 0.0 | 1.0 | 0.00 | 0.00 | 0.00 | 66 | 997.4 |
| 20260905212526 | 78 | 66 | 0.0 | 1.0 | 0.00 | 0.00 | 0.00 | 68 | 997.4 |
| 20260905212033 | 77 | 67 | 0.0 | 1.0 | 0.00 | 0.00 | 0.00 | 69 | 997.3 |
| 20260905211523 | 77 | 246 | 0.0 | 2.0 | 0.00 | 0.00 | 0.00 | 66 | 997.4 |
| 20260905211023 | 77 | 114 | 0.0 | 2.0 | 0.00 | 0.00 | 0.00 | 71 | 997.3 |
| 20260905210534 | 76 | 262 | 0.0 | 4.0 | 0.00 | 0.00 | 0.00 | 71 | 997.3 |
| 20260905210021 | 75 | 139 | 0.0 | 4.0 | 0.00 | 0.00 | 0.00 | 68 | 997.2 |
| 20260905205521 | 76 | 202 | 0.0 | 1.0 | 0.00 | 0.00 | 0.00 | 70 | 997.2 |
| 20260905205031 | 76 | 318 | 0.0 | 1.0 | 0.00 | 0.00 | 0.00 | 69 | 997.1 |
| 20260905204520 | 76 | 103 | 0.0 | 2.0 | 0.00 | 0.00 | 0.00 | 69 | 997.1 |
| 20260905204021 | 77 | 63 | 0.0 | 2.0 | 0.00 | 0.00 | 0.00 | 66 | 997.0 |
| 20260905203533 | 78 | 129 | 0.0 | 1.0 | 0.00 | 0.00 | 0.00 | 65 | 997.0 |
| 20260905203040 | 78 | 230 | 0.0 | 4.0 | 0.00 | 0.00 | 0.00 | 64 | 997.1 |
| 20260905202550 | 79 | 133 | 0.0 | 2.0 | 0.00 | 0.00 | 0.00 | 65 | 997.0 |
| 20260905202024 | 78 | 41 | 0.0 | 2.0 | 0.00 | 0.00 | 0.00 | 66 | 997.0 |
| 20260905201533 | 78 | 30 | 0.0 | 2.0 | 0.00 | 0.00 | 0.00 | 65 | 997.0 |
| 20260905201033 | 78 | 243 | 1.0 | 2.0 | 0.00 | 0.00 | 0.00 | 65 | 996.9 |
| 20260905200525 | 78 | 262 | 0.0 | 3.0 | 0.00 | 0.00 | 0.00 | 67 | 996.9 |
| 20260905200030 | 77 | 216 | 0.0 | 4.0 | 0.00 | 0.00 | 0.00 | 67 | 996.8 |
| 20260905195526 | 78 | 131 | 0.0 | 5.0 | 0.00 | 0.00 | 0.00 | 66 | 996.8 |
| 20260905195035 | 78 | 125 | 1.0 | 5.0 | 0.00 | 0.00 | 0.00 | 66 | 996.8 |
| 20260905194545 | 78 | 268 | 0.0 | 3.0 | 0.00 | 0.00 | 0.00 | 69 | 996.9 |
| 20260905194025 | 78 | 269 | 1.0 | 3.0 | 0.00 | 0.00 | 0.00 | 68 | 996.9 |
| 20260905193535 | 77 | 262 | 0.0 | 2.0 | 0.00 | 0.00 | 0.00 | 72 | 996.9 |
| 20260905193041 | 75 | 346 | 0.0 | 3.0 | 0.00 | 0.00 | 0.00 | 75 | 996.9 |
| 20260905192520 | 75 | 144 | 1.0 | 3.0 | 0.00 | 0.00 | 0.00 | 73 | 997.0 |
| 20260905192029 | 74 | 342 | 0.0 | 3.0 | 0.00 | 0.00 | 0.00 | 74 | 997.1 |
| 20260905191539 | 74 | 286 | 0.0 | 3.0 | 0.00 | 0.00 | 0.00 | 72 | 997.0 |
| 20260905191047 | 74 | 121 | 1.0 | 3.0 | 0.00 | 0.00 | 0.00 | 75 | 997.0 |
| 20260905190530 | 74 | 273 | 0.0 | 0.0 | 0.00 | 0.00 | 0.00 | 77 | 997.0 |
| 20260905190038 | 73 | 273 | 0.0 | 1.0 | 0.00 | 0.00 | 0.00 | 77 | 997.0 |
| 20260905185547 | 73 | 279 | 0.0 | 2.0 | 0.00 | 0.00 | 0.00 | 77 | 997.1 |
| 20260905185047 | 73 | 283 | 0.0 | 2.0 | 0.00 | 0.00 | 0.00 | 76 | 997.1 |
| 20260905184527 | 73 | 260 | 0.0 | 2.0 | 0.00 | 0.00 | 0.00 | 76 | 997.1 |
| 20260905184036 | 74 | 260 | 0.0 | 2.0 | 0.00 | 0.00 | 0.00 | 79 | 997.1 |
| 20260905183525 | 74 | 120 | 0.0 | 2.0 | 0.00 | 0.00 | 0.00 | 76 | 997.1 |
| 20260905183022 | 74 | 106 | 0.0 | 2.0 | 0.00 | 0.00 | 0.00 | 76 | 997.1 |
| 20260905182547 | 74 | 91 | 0.0 | 3.0 | 0.00 | 0.00 | 0.00 | 77 | 997.0 |
| 20260905182055 | 74 | 90 | 0.0 | 3.0 | 0.00 | 0.00 | 0.00 | 76 | 997.0 |
| 20260905181520 | 74 | 272 | 0.0 | 2.0 | 0.00 | 0.00 | 0.00 | 74 | 997.0 |
| 20260905181025 | 74 | 280 | 1.0 | 3.0 | 0.00 | 0.00 | 0.00 | 75 | 997.0 |
| 20260905180527 | 74 | 72 | 1.0 | 3.0 | 0.00 | 0.00 | 0.00 | 81 | 997.0 |
| 20260905180030 | 73 | 229 | 0.0 | 1.0 | 0.00 | 0.00 | 0.00 | 80 | 997.0 |
| 20260905175539 | 72 | 226 | 0.0 | 1.0 | 0.00 | 0.00 | 0.00 | 80 | 997.1 |
| 20260905175048 | 72 | 226 | 0.0 | 1.0 | 0.00 | 0.00 | 0.00 | 80 | 997.1 |
| 20260905174528 | 72 | 130 | 0.0 | 1.0 | 0.00 | 0.00 | 0.00 | 83 | 997.1 |
| 20260905174038 | 72 | 129 | 0.0 | 0.0 | 0.00 | 0.00 | 0.00 | 82 | 997.1 |
| 20260905173529 | 72 | 129 | 0.0 | 1.0 | 0.00 | 0.00 | 0.00 | 80 | 997.1 |
| 20260905173037 | 72 | 129 | 0.0 | 1.0 | 0.00 | 0.00 | 0.00 | 78 | 997.1 |
| 20260905172547 | 72 | 137 | 0.0 | 3.0 | 0.00 | 0.00 | 0.00 | 78 | 997.1 |
| 20260905172026 | 73 | 112 | 0.0 | 4.0 | 0.00 | 0.00 | 0.00 | 79 | 997.1 |
| 20260905171536 | 73 | 255 | 0.0 | 4.0 | 0.00 | 0.00 | 0.00 | 78 | 997.2 |
| 20260905171044 | 73 | 127 | 0.0 | 3.0 | 0.00 | 0.00 | 0.00 | 79 | 997.2 |
| 20260905170553 | 73 | 291 | 0.0 | 3.0 | 0.00 | 0.00 | 0.00 | 77 | 997.1 |
| 20260905170059 | 73 | 152 | 1.0 | 4.0 | 0.00 | 0.00 | 0.00 | 77 | 997.1 |
| 20260905165546 | 73 | 290 | 1.0 | 4.0 | 0.00 | 0.00 | 0.00 | 76 | 997.1 |
| 20260905165021 | 73 | 131 | 1.0 | 4.0 | 0.00 | 0.00 | 0.00 | 77 | 997.1 |
| 20260905164531 | 73 | 260 | 1.0 | 4.0 | 0.00 | 0.00 | 0.00 | 75 | 997.1 |
| 20260905164041 | 73 | 330 | 0.0 | 4.0 | 0.00 | 0.00 | 0.00 | 79 | 997.1 |
| 20260905163524 | 72 | 193 | 1.0 | 3.0 | 0.00 | 0.00 | 0.00 | 79 | 997.2 |
| 20260905163030 | 72 | 58 | 1.0 | 3.0 | 0.00 | 0.00 | 0.00 | 80 | 997.2 |
| 20260905162538 | 72 | 164 | 0.0 | 3.0 | 0.00 | 0.00 | 0.00 | 79 | 997.3 |
| 20260905162047 | 72 | 11 | 0.0 | 6.0 | 0.00 | 0.00 | 0.00 | 78 | 997.4 |
| 20260905161528 | 73 | 111 | 1.0 | 6.0 | 0.00 | 0.00 | 0.00 | 76 | 997.4 |
| 20260905161037 | 73 | 230 | 0.0 | 3.0 | 0.00 | 0.00 | 0.00 | 76 | 997.4 |
| 20260905160549 | 73 | 124 | 0.0 | 2.0 | 0.00 | 0.00 | 0.00 | 76 | 997.4 |
| 20260905160026 | 74 | 105 | 0.0 | 6.0 | 0.00 | 0.00 | 0.00 | 76 | 997.5 |
| 20260905155536 | 74 | 231 | 1.0 | 3.0 | 0.00 | 0.00 | 0.00 | 75 | 997.6 |
| 20260905155044 | 73 | 18 | 1.0 | 3.0 | 0.00 | 0.00 | 0.00 | 80 | 997.6 |
| 20260905154523 | 72 | 264 | 0.0 | 4.0 | 0.00 | 0.00 | 0.00 | 78 | 997.6 |
| 20260905154032 | 72 | 88 | 1.0 | 4.0 | 0.00 | 0.00 | 0.00 | 79 | 997.6 |
| 20260905153540 | 72 | 323 | 0.0 | 4.0 | 0.00 | 0.00 | 0.00 | 80 | 997.5 |
| 20260905153048 | 72 | 89 | 1.0 | 2.0 | 0.00 | 0.00 | 0.00 | 79 | 997.5 |
| 20260905152540 | 71 | 224 | 0.0 | 3.0 | 0.00 | 0.00 | 0.00 | 80 | 997.6 |
| 20260905152048 | 71 | 267 | 1.0 | 3.0 | 0.00 | 0.00 | 0.00 | 81 | 997.6 |
| 20260905151556 | 70 | 135 | 1.0 | 5.0 | 0.00 | 0.00 | 0.00 | 80 | 997.6 |
| 20260905151044 | 70 | 89 | 1.0 | 5.0 | 0.00 | 0.00 | 0.00 | 81 | 997.8 |
| 20260905150553 | 70 | 111 | 1.0 | 3.0 | 0.00 | 0.00 | 0.00 | 82 | 997.7 |